Total_Precipitation_Accumulation
0.08 0.04 0.03 0.09 0.09 0.05 0.08 0.09 0.10 0.03 0.02 0.07 0.02 0.02 0.01 0.01 0.01 0.00 0.00 0.01 0.01 0.01 0.02 0.04 0.03 0.04 0.04 0.04 0.07 0.05 0.04 0.06 0.22 0.05 0.06 0.07 0.04 0.03 0.05 0.02 0.02 0.03
0.07 0.02 0.03 0.03 0.03 0.06 0.13 0.04 0.02 0.07 0.02 0.05 0.03 0.06 0.01 0.01 0.00 0.00 0.01 0.01 0.01 0.01 0.02 0.03 0.03 0.02 0.03 0.04 0.06 0.05 0.07 0.05 0.16 0.09 0.02 0.04 0.03 0.06 0.02 0.02 0.02 0.02
0.02 0.05 0.07 0.05 0.06 0.19 0.17 0.12 0.06 0.10 0.04 0.03 0.04 0.05 0.06 0.00 0.02 0.00 0.01 0.01 0.01 0.03 0.03 0.02 0.05 0.03 0.03 0.05 0.07 0.05 0.08 0.07 0.11 0.02 0.04 0.05 0.04 0.05 0.05 0.03 0.05 0.04
0.01 0.03 0.04 0.03 0.03 0.07 0.04 0.04 0.15 0.02 0.02 0.05 0.02 0.02 0.00 0.06 0.01 0.03 0.00 0.00 0.00 0.01 0.02 0.02 0.02 0.02 0.03 0.03 0.06 0.04 0.05 0.07 0.03 0.03 0.05 0.08 0.03 0.04 0.04 0.05 0.03 0.05
0.00 0.01 0.02 0.02 0.01 0.02 0.01 0.03 0.06 0.03 0.04 0.07 0.00 0.02 0.00 0.06 0.01 0.01 0.01 0.01 0.00 0.00 0.01 0.01 0.01 0.02 0.02 0.03 0.05 0.07 0.03 0.07 0.03 0.03 0.05 0.08 0.03 0.02 0.05 0.02 0.03 0.02
0.00 0.00 0.00 0.00 0.00 0.01 0.04 0.03 0.01 0.02 0.03 0.01 0.02 0.02 0.00 0.00 0.03 0.04 0.02 0.00 0.00 0.01 0.03 0.03 0.05 0.01 0.01 0.02 0.02 0.03 0.07 0.04 0.04 0.04 0.03 0.03 0.03 0.02 0.01 0.01 0.02 0.02
0.00 0.00 0.00 0.00 0.01 0.01 0.01 0.01 0.00 0.00 0.02 0.01 0.06 0.01 0.01 0.01 0.01 0.01 0.00 0.02 0.01 0.00 0.01 0.01 0.02 0.03 0.02 0.02 0.02 0.02 0.02 0.02 0.07 0.08 0.05 0.09 0.03 0.01 0.01 0.02 0.02 0.02
0.00 0.00 0.00 0.00 0.00 0.01 0.01 0.02 0.02 0.00 0.03 0.01 0.02 0.01 0.00 0.00 0.03 0.01 0.02 0.01 0.02 0.00 0.00 0.01 0.08 0.01 0.01 0.01 0.02 0.02 0.02 0.03 0.04 0.03 0.04 0.01 0.01 0.02 0.02 0.01 0.01 0.02
0.00 0.00 0.01 0.00 0.00 0.00 0.01 0.01 0.01 0.01 0.00 0.01 0.01 0.04 0.02 0.01 0.01 0.03 0.01 0.02 0.01 0.01 0.01 0.02 0.02 0.02 0.01 0.02 0.03 0.04 0.01 0.02 0.02 0.03 0.03 0.02 0.02 0.02 0.02 0.01 0.01 0.01
0.08 0.04 0.00 0.00 0.00 0.03 0.03 0.10 0.05 0.01 0.02 0.01 0.01 0.00 0.01 0.02 0.01 0.06 0.09 0.26 0.21 0.07 0.04 0.05 0.04 0.06 0.03 0.06 0.04 0.07 0.07 0.02 0.10 0.17 0.06 0.09 0.02 0.03 0.04 0.02 0.02 0.05
0.12 0.11 0.04 0.04 0.04 0.08 0.05 0.05 0.04 0.06 0.03 0.02 0.01 0.01 0.04 0.11 0.05 0.06 0.13 0.17 0.15 0.13 0.14 0.10 0.14 0.06 0.08 0.22 0.16 0.19 0.21 0.33 0.43 0.28 0.14 0.06 0.02 0.01 0.06 0.08 0.09 0.11
0.27 0.23 0.12 0.16 0.09 0.04 0.07 0.03 0.01 0.01 0.00 0.02 0.03 0.06 0.08 0.09 0.11 0.21 0.39 0.39 0.38 0.26 0.16 0.18 0.24 0.22 0.33 0.48 0.20 0.17 0.22 0.32 0.15 0.08 0.04 0.03 0.03 0.07 0.23 0.33 0.17 0.23
0.69 0.87 0.98 0.51 0.13 0.19 0.17 0.22 0.13 0.02 0.03 0.04 0.05 0.11 0.22 0.23 0.29 0.35 0.45 0.52 0.31 0.21 0.23 0.18 0.26 0.40 0.73 0.78 0.52 0.29 0.35 0.26 0.06 0.05 0.04 0.11 0.04 0.33 0.39 0.75 0.52 0.61
1.00 0.95 0.89 0.56 0.66 0.60 0.36 0.33 0.28 0.15 0.13 0.16 0.31 0.31 0.33 0.39 0.40 0.37 0.29 0.23 0.18 0.15 0.12 0.27 0.42 0.48 0.41 0.81 0.36 0.12 0.11 0.08 0.05 0.14 0.12 0.19 0.08 0.23 0.32 0.43 0.52 0.67
1.42 1.64 1.69 1.01 0.53 0.88 0.73 0.29 0.45 0.38 0.40 0.49 0.43 0.56 0.65 0.41 0.42 0.25 0.11 0.15 0.14 0.08 0.35 0.30 0.44 0.21 0.08 0.11 0.25 0.16 0.21 0.23 0.30 0.28 0.24 0.18 0.36 0.33 0.38 0.29 0.40 0.34
1.84 1.72 1.85 1.77 1.20 1.94 2.36 1.06 0.95 1.24 1.27 1.05 0.87 0.90 0.67 0.61 0.27 0.24 0.11 0.05 0.07 0.10 0.18 0.42 0.36 0.27 0.13 0.15 0.17 0.29 0.51 0.20 0.23 0.21 0.46 0.40 0.26 0.22 0.27 0.41 0.26 0.84
3.41 2.73 1.86 1.85 2.14 2.00 2.26 1.93 1.30 0.91 0.80 0.78 0.71 0.60 0.55 0.35 0.21 0.15 0.12 0.07 0.07 0.10 0.28 0.56 0.23 0.39 0.24 0.47 0.20 0.11 0.29 0.26 0.13 0.28 0.42 0.34 0.30 0.16 0.28 0.69 0.44 0.81
2.55 3.42 2.64 2.06 2.05 2.88 2.62 1.97 1.76 1.11 0.85 0.60 0.42 0.45 0.30 0.36 0.25 0.20 0.14 0.09 0.07 0.09 0.32 0.45 0.47 0.31 0.58 0.52 0.09 0.00 0.00 0.06 0.18 0.21 0.32 0.40 0.33 0.27 0.30 0.42 0.94 0.97
3.53 4.30 3.10 2.65 3.19 3.86 3.20 2.75 1.63 1.35 1.30 1.25 0.62 0.88 0.97 0.45 0.28 0.31 0.28 0.39 0.17 0.30 0.62 0.23 0.25 0.63 0.07 0.05 0.00 0.00 0.00 0.02 0.18 0.35 0.29 0.30 0.16 0.23 0.28 0.59 0.95 1.20
3.32 3.10 2.66 2.99 3.51 3.98 3.33 2.03 2.04 1.28 1.42 2.02 1.41 0.99 0.82 0.57 0.56 0.62 0.39 0.43 0.20 0.29 0.34 0.53 0.33 0.11 0.06 0.05 0.00 0.01 0.01 0.02 0.05 0.17 0.32 0.32 0.49 0.85 0.67 1.18 1.50 1.43
3.89 3.56 3.67 3.78 3.99 3.40 2.49 3.15 2.28 2.55 2.73 2.28 2.03 1.74 1.30 0.90 0.48 0.40 0.43 0.30 0.29 0.45 0.50 0.27 0.45 0.13 0.03 0.01 0.00 0.00 0.00 0.00 0.03 0.29 0.48 0.20 0.46 0.50 0.45 1.26 1.34 1.88
3.17 3.41 4.01 5.06 4.82 4.13 3.27 2.98 2.81 3.13 3.06 2.76 2.27 1.76 1.50 0.91 0.68 0.66 0.68 0.80 0.79 0.63 0.30 0.34 0.10 0.04 0.01 0.01 0.01 0.02 0.01 0.02 0.04 0.25 0.34 0.21 0.48 0.68 1.04 1.51 1.87 1.62
3.23 4.18 3.85 3.64 3.53 3.83 3.83 4.05 3.69 3.69 3.08 2.99 2.30 1.58 1.44 1.08 1.30 1.04 0.60 1.16 1.04 0.88 0.59 0.56 0.18 0.31 0.07 0.05 0.04 0.03 0.03 0.04 0.05 0.14 0.30 0.34 0.84 1.01 1.06 1.84 1.73 1.54
4.20 3.91 4.44 4.66 3.74 3.57 3.52 3.99 4.00 3.63 3.88 3.95 3.41 2.77 2.68 3.00 2.57 1.62 2.48 2.38 1.76 0.88 0.47 0.25 0.15 0.12 0.27 0.35 0.35 0.03 0.05 0.06 0.10 0.39 0.46 0.90 0.79 1.21 1.43 1.17 1.17 0.95
3.41 3.90 4.16 4.79 4.83 3.72 3.94 4.68 3.94 3.54 3.43 3.39 3.74 3.09 3.32 3.65 3.53 3.50 5.13 4.06 2.78 2.19 0.82 0.64 0.39 0.80 0.75 0.86 1.33 1.03 1.07 1.12 0.94 1.13 1.42 1.19 1.42 2.20 2.79 1.10 1.88 1.04
3.06 2.83 3.01 3.63 3.38 4.27 5.49 4.83 5.32 5.45 5.10 4.08 4.19 4.75 4.61 4.10 4.54 5.04 4.70 3.56 2.63 2.22 1.96 1.68 1.63 1.22 1.43 0.67 0.97 1.68 0.79 2.41 2.90 1.50 1.46 1.75 1.96 1.59 1.73 1.47 1.54 1.21